Terminal Aerodrome Forecast
Issued by NWS Austin/San Antonio, TX

Home | Current Version | Previous Version | Text Only | Print | Product List | Glossary On
Versions: 1 2 3 4 5 6 7 8 9 10 11 12 13 14 15 16 17 18 19 20 21 22 23 24
000
FTUS44 KEWX 041126
TAFSAT
TAF
KSAT 041126Z 0412/0518 15005KT P6SM BKN025
     FM041300 16005KT P6SM BKN008
     FM041500 16010KT P6SM BKN015
     FM041700 15012KT P6SM BKN050
     FM050700 15010KT P6SM BKN015
     FM051000 15005KT P6SM OVC008
     FM051600 15012KT P6SM BKN025=

USA.gov is the U.S. government's official web portal to all federal, state and local government web resources and services.